Date,TemperatureHighF,TemperatureAvgF,TemperatureLowF,DewpointHighF,DewpointAvgF,DewpointLowF,HumidityHigh,HumidityAvg,HumidityLow,PressureMaxIn,PressureMinIn,WindSpeedMaxMPH,WindSpeedAvgMPH,GustSpeedMaxMPH,PrecipitationSumIn
2013-1-1,75.9,63.4,51.2,66.0,60.0,50.0,97,89,69,30.11,29.92,19,2,19,0.20
2013-1-2,59.7,53.2,46.3,58.0,49.5,44.0,97,88,70,30.15,29.95,10,3,11,0.00
2013-1-3,46.1,41.0,32.0,44.0,39.7,31.0,97,95,86,30.32,30.13,6,1,10,0.23
2013-1-4,56.1,41.1,31.5,38.0,33.2,30.0,97,77,38,30.40,30.30,8,2,11,0.01
2013-1-5,53.6,45.1,34.2,43.0,36.1,31.0,96,73,48,30.37,30.22,6,1,7,0.00
2013-1-6,52.7,47.6,39.7,47.0,42.1,39.0,97,81,68,30.27,30.16,6,1,11,0.00
2013-1-7,59.3,45.6,32.6,40.0,37.5,32.0,97,76,44,30.32,30.22,7,1,11,0.00
2013-1-8,63.4,54.9,44.7,56.0,49.0,40.0,85,80,73,30.27,30.18,7,2,13,0.00
2013-1-9,67.5,63.0,59.6,64.0,60.5,56.0,96,91,85,30.29,30.19,7,2,10,0.02
2013-1-10,77.9,69.5,63.1,70.0,65.4,62.0,97,87,65,30.28,30.08,13,3,22,0.01
2013-1-11,77.7,69.5,61.3,69.0,65.7,60.0,97,88,72,30.16,30.04,10,2,22,0.00
2013-1-12,78.6,68.9,64.1,66.0,64.4,62.0,97,86,59,30.13,30.00,10,2,17,0.00
2013-1-13,77.5,70.3,65.9,70.0,67.5,65.0,97,91,75,30.02,29.95,12,2,16,0.05
2013-1-14,76.1,69.9,56.1,73.0,68.1,55.0,97,94,83,30.08,30.00,7,2,15,0.17
2013-1-15,77.9,68.3,55.7,72.0,66.5,55.0,98,94,78,30.05,29.91,13,2,17,0.05
2013-1-16,68.9,59.3,50.5,68.0,58.2,49.0,97,96,95,29.99,29.90,8,1,12,1.60
2013-1-17,50.5,41.5,38.0,50.0,39.4,35.0,97,92,85,30.27,29.94,10,3,19,0.05
2013-1-18,58.5,44.1,31.5,40.0,35.7,31.0,97,75,40,30.50,30.26,9,2,14,0.00
2013-1-19,60.7,46.5,31.5,49.0,39.5,31.0,96,78,55,30.41,30.22,4,0,7,0.00
2013-1-20,65.7,49.7,37.7,49.0,42.9,37.0,97,81,45,30.25,30.10,7,1,14,0.00
2013-1-21,65.8,49.1,33.9,47.0,40.7,33.0,98,76,44,30.19,30.08,6,1,10,0.00
2013-1-22,56.6,42.8,33.4,39.0,31.9,25.0,96,70,35,30.35,30.18,9,1,12,0.00
2013-1-23,65.4,47.9,31.2,49.0,40.1,30.0,96,77,47,30.41,30.27,5,0,8,0.00
2013-1-24,71.0,56.4,44.9,58.0,51.5,44.0,96,85,60,30.31,30.21,6,1,14,0.00
2013-1-25,71.5,59.0,48.6,57.0,52.6,45.0,96,80,61,30.29,30.12,9,2,15,0.00
2013-1-26,71.5,59.7,51.2,62.0,56.3,50.0,96,89,69,30.24,30.14,5,1,11,0.00
2013-1-27,71.7,60.0,48.7,55.0,48.6,39.0,95,67,50,30.32,30.24,5,1,8,0.00
2013-1-28,73.4,62.3,57.2,64.0,58.3,53.0,96,87,71,30.32,30.16,9,1,9,0.00
2013-1-29,77.9,67.9,57.9,69.0,64.4,57.0,97,89,72,30.16,29.90,10,3,16,0.04
2013-1-30,77.4,63.7,44.4,72.0,61.4,37.0,97,92,74,30.03,29.60,15,5,36,1.35
2013-1-31,55.9,43.8,34.5,37.0,32.3,27.0,94,68,34,30.29,30.04,10,2,15,0.00
2013-2-1,56.8,42.4,30.9,38.0,31.7,25.0,96,70,32,30.39,30.27,10,1,13,0.00
2013-2-2,65.1,46.9,27.5,46.0,31.2,22.0,95,59,27,30.36,30.15,6,1,11,0.04
2013-2-3,65.8,50.8,36.1,48.0,39.2,31.0,97,71,28,30.21,30.07,7,1,14,0.00
2013-2-4,62.3,49.2,34.7,48.0,39.7,34.0,97,73,41,30.12,29.99,5,1,9,0.00
2013-2-5,65.0,56.7,49.8,60.0,55.0,48.0,97,94,81,30.04,29.96,3,0,6,0.08
2013-2-6,71.3,59.0,54.0,61.0,55.7,52.0,97,89,64,30.14,30.02,5,1,10,0.01
2013-2-7,69.9,60.3,54.4,63.0,58.2,53.0,96,93,77,30.05,29.78,10,2,15,2.08
2013-2-8,70.6,60.1,53.3,61.0,55.8,48.0,97,86,63,30.14,29.91,9,1,15,0.00
2013-2-9,64.2,50.1,36.7,47.0,40.6,36.0,96,73,40,30.26,30.15,7,1,11,0.00
2013-2-10,71.3,59.5,48.5,65.0,55.0,43.0,96,85,75,30.17,29.98,18,4,22,1.39
2013-2-11,65.2,60.1,56.0,64.0,59.0,55.0,97,96,92,30.11,30.01,8,1,13,0.74
2013-2-12,60.9,57.9,55.8,60.0,56.7,55.0,97,96,91,30.05,29.74,7,2,14,1.19
2013-2-13,60.6,52.5,43.2,60.0,51.0,42.0,98,95,82,30.02,29.74,5,1,11,0.29
2013-2-14,56.5,43.8,35.6,44.0,40.3,35.0,97,89,60,30.14,30.01,8,1,11,0.01
2013-2-15,65.5,46.9,30.8,48.0,38.4,30.0,98,77,36,30.15,30.00,6,1,12,0.01
2013-2-16,52.1,44.3,29.2,43.0,30.3,17.0,89,62,28,30.25,30.01,11,2,20,0.00
2013-2-17,54.5,38.0,23.6,32.0,24.4,14.0,96,65,23,30.38,30.25,6,1,10,0.00
2013-2-18,64.3,48.2,29.7,43.0,36.3,29.0,96,67,37,30.33,30.07,12,3,16,0.00
2013-2-19,66.0,54.9,37.4,61.0,45.5,33.0,96,73,34,30.17,29.97,13,3,15,0.10
2013-2-20,59.5,44.5,29.0,34.0,28.6,25.0,94,58,28,30.23,30.07,9,1,11,0.00
2013-2-21,69.1,52.8,32.9,58.0,39.7,27.0,94,64,34,30.12,29.92,9,2,13,0.00
2013-2-22,66.6,63.0,59.2,66.0,61.9,58.0,96,96,94,29.96,29.86,5,1,12,1.73
2013-2-23,60.1,55.8,52.4,59.0,54.8,51.0,98,96,95,29.94,29.78,6,1,10,0.98
2013-2-24,71.2,58.8,47.2,52.0,47.9,43.0,98,71,37,30.01,29.83,11,2,12,0.05
2013-2-25,63.5,57.5,52.7,60.0,56.2,51.0,96,95,87,29.88,29.54,11,3,16,2.24
2013-2-26,65.8,58.7,47.8,62.0,50.8,41.0,96,77,46,29.88,29.48,11,2,19,0.90
2013-2-27,63.3,50.5,41.8,45.0,42.1,40.0,95,75,47,29.99,29.89,12,1,13,0.00
2013-2-28,57.8,47.5,38.3,42.0,37.3,33.0,96,71,42,30.04,29.94,7,1,12,0.00
2013-3-1,53.9,43.1,32.4,35.0,33.3,30.0,94,70,47,30.09,29.98,9,2,16,0.00
2013-3-2,44.7,37.7,28.3,33.0,29.0,27.0,96,72,51,30.13,30.05,10,2,14,0.00
2013-3-3,50.1,38.7,29.8,30.0,27.1,22.0,91,66,34,30.17,30.08,10,2,14,0.00
2013-3-4,66.8,47.9,28.2,48.0,35.8,27.0,96,69,30,30.19,30.01,9,2,13,0.00
2013-3-5,75.3,58.4,39.6,62.0,51.8,37.0,93,79,56,30.08,29.84,15,3,23,0.01
2013-3-6,53.5,43.9,35.6,38.0,32.1,28.0,96,66,43,30.23,30.07,15,3,20,0.00
2013-3-7,64.8,45.4,29.8,39.0,33.2,28.0,95,67,29,30.31,30.18,10,1,12,0.00
2013-3-8,71.0,51.1,32.5,40.0,34.8,27.0,96,62,20,30.29,30.16,7,1,11,0.00
2013-3-9,71.3,56.7,40.7,49.0,42.7,35.0,93,63,37,30.23,30.09,10,1,14,0.00
2013-3-10,76.8,63.1,52.6,57.0,52.0,43.0,86,69,45,30.10,29.99,13,3,20,0.00
2013-3-11,67.1,56.6,46.7,62.0,54.5,45.0,96,92,84,29.98,29.80,11,3,17,1.12
2013-3-12,63.2,49.7,38.9,45.0,38.1,34.0,95,68,35,30.14,29.91,12,3,18,0.00
2013-3-13,64.4,51.1,35.5,42.0,33.2,25.0,96,56,23,30.29,30.14,13,2,19,0.00
2013-3-14,62.5,46.0,30.0,35.0,27.8,20.0,90,55,20,30.40,30.24,8,2,12,0.00
2013-3-15,77.0,56.6,33.8,49.0,41.9,33.0,96,64,32,30.28,30.08,8,2,14,0.00
2013-3-16,77.6,61.1,42.2,56.0,50.8,41.0,97,73,40,30.10,29.95,8,2,17,0.00
2013-3-17,70.7,62.1,53.9,64.0,59.2,53.0,97,90,78,30.03,29.91,5,1,8,0.02
2013-3-18,79.9,67.0,57.8,69.0,62.7,57.0,96,87,66,29.94,29.77,13,3,17,0.14
2013-3-19,75.6,61.9,54.0,57.0,51.4,39.0,96,72,35,30.03,29.82,8,2,17,0.31
2013-3-20,63.5,55.2,41.7,39.0,34.4,30.0,80,47,30,30.10,29.95,9,2,13,0.00
2013-3-21,63.7,49.7,36.1,39.0,30.5,22.0,93,53,22,30.03,29.89,7,1,14,0.00
2013-3-22,58.5,52.6,46.7,44.0,34.8,28.0,70,52,41,29.99,29.91,10,2,14,0.00
2013-3-23,67.2,58.5,52.9,60.0,53.5,45.0,96,84,72,29.91,29.60,6,2,9,0.13
2013-3-24,80.8,64.9,45.7,68.0,56.7,34.0,97,77,44,29.86,29.50,10,2,19,0.09
2013-3-25,58.0,47.2,36.9,35.0,28.3,21.0,74,51,28,30.18,29.86,20,3,20,0.00
2013-3-26,53.3,41.0,27.4,30.0,27.9,26.0,94,63,38,30.34,30.18,11,2,17,0.00
2013-3-27,60.9,42.2,26.4,35.0,29.2,25.0,96,66,30,30.41,30.25,7,1,13,0.00
2013-3-28,70.6,50.9,30.9,40.0,34.5,30.0,96,61,25,30.35,30.21,8,1,10,0.00
2013-3-29,76.7,56.3,36.1,47.0,39.8,35.0,96,61,25,30.32,30.16,9,1,17,0.00
2013-3-30,76.2,61.0,43.2,58.0,51.9,42.0,96,75,45,30.20,30.03,10,2,17,0.00
2013-3-31,82.0,67.5,55.3,65.0,60.7,54.0,96,81,50,30.05,29.86,8,2,22,0.00
2013-4-1,76.8,63.6,51.1,63.0,58.0,50.0,96,84,50,30.02,29.87,5,1,10,0.00
2013-4-2,81.0,62.2,45.6,53.0,49.4,45.0,97,69,31,30.12,29.98,5,1,9,0.00
2013-4-3,58.2,56.1,52.3,57.0,50.9,45.0,95,83,64,30.09,29.86,6,2,9,0.31
2013-4-4,68.9,60.3,54.3,63.0,58.3,53.0,96,93,81,29.95,29.84,5,1,8,0.04
2013-4-5,63.5,52.9,45.7,53.0,48.9,45.0,96,87,60,30.07,29.88,9,2,14,0.00
2013-4-6,76.7,58.2,38.1,53.0,45.9,37.0,97,69,34,30.16,30.05,8,1,8,0.01
2013-4-7,79.5,63.5,44.8,61.0,55.3,44.0,97,77,51,30.15,30.02,6,1,13,0.00
2013-4-8,83.5,66.6,54.1,62.0,58.1,53.0,96,77,46,30.09,30.00,9,1,13,0.00
2013-4-9,87.9,69.8,57.0,64.0,60.0,56.0,96,74,43,30.11,29.99,8,2,15,0.00
2013-4-10,85.9,70.9,58.6,67.0,61.5,57.0,95,74,46,30.06,29.89,10,2,16,0.00
2013-4-11,82.6,71.0,58.7,73.0,67.5,57.0,96,89,72,29.89,29.59,12,3,30,0.59
2013-4-12,72.8,61.9,48.8,67.0,54.0,47.0,96,78,44,29.95,29.71,9,2,14,0.01
2013-4-13,80.1,61.9,42.9,55.0,48.2,42.0,97,67,28,30.03,29.91,5,1,9,0.00
2013-4-14,62.0,58.4,55.4,59.0,56.1,51.0,96,92,69,30.00,29.62,13,1,23,1.89
2013-4-15,84.7,70.2,57.9,73.0,65.7,57.0,96,86,65,30.05,29.85,5,1,8,0.00
2013-4-16,86.2,74.0,65.0,72.0,66.9,-99.9,96,83,61,30.12,30.04,8,1,18,0.00
2013-4-17,82.5,73.3,64.5,71.0,68.1,63.0,96,84,66,30.15,30.02,6,1,10,0.00
2013-4-18,84.4,72.7,62.8,70.0,67.0,62.0,96,83,60,30.02,29.86,10,2,13,0.00
2013-4-19,75.2,59.3,46.0,72.0,57.9,45.0,97,95,85,30.11,29.80,9,2,13,0.52
2013-4-20,66.0,51.8,38.5,49.0,43.4,38.0,97,77,43,30.23,30.11,11,2,15,0.01
2013-4-21,73.4,57.8,41.3,53.0,46.2,41.0,97,70,38,30.22,30.11,7,1,13,0.00
2013-4-22,70.3,61.6,55.2,62.0,55.4,47.0,96,80,67,30.17,30.07,9,1,11,0.00
2013-4-23,77.5,64.8,52.1,63.0,58.4,51.0,97,81,57,30.14,30.02,9,1,10,0.00
2013-4-24,80.6,66.6,53.9,68.0,62.2,53.0,97,87,62,30.12,30.03,7,1,11,0.00
2013-4-25,76.4,63.9,49.2,63.0,56.3,47.0,96,79,40,30.25,30.11,8,1,11,0.00
2013-4-26,83.3,62.5,43.9,52.0,45.2,41.0,94,60,24,30.30,30.19,6,1,10,0.00
2013-4-27,82.9,66.9,50.8,69.0,60.9,50.0,96,82,58,30.22,30.05,11,1,16,0.00
2013-4-28,84.2,72.0,63.1,70.0,65.2,62.0,97,81,52,30.09,29.93,7,1,16,0.00
2013-4-29,82.1,68.3,61.1,69.0,64.2,60.0,97,88,56,29.98,29.87,4,1,13,0.22
2013-4-30,82.8,70.8,61.5,69.0,65.4,60.0,97,84,59,29.98,29.89,7,1,12,0.00
2013-5-1,69.8,66.6,65.1,67.0,64.6,63.0,96,93,89,30.01,29.89,9,2,14,0.74
2013-5-2,75.8,68.0,63.5,69.0,64.4,60.0,96,88,75,30.01,29.91,8,2,18,0.02
2013-5-3,71.8,66.4,62.9,65.0,63.0,62.0,97,89,73,29.93,29.80,13,2,13,0.27
2013-5-4,66.4,54.1,43.9,62.0,46.8,42.0,97,80,42,29.91,29.81,10,2,19,0.74
2013-5-5,74.9,56.3,40.9,58.0,46.8,40.0,97,74,40,29.94,29.78,11,2,19,0.00
2013-5-6,68.0,55.8,42.2,56.0,49.8,41.0,97,82,55,29.97,29.90,7,1,14,0.00
2013-5-7,74.9,62.3,54.2,61.0,56.8,53.0,97,84,56,30.02,29.90,4,1,9,0.01
2013-5-8,83.1,68.2,51.3,65.0,58.8,51.0,97,75,46,30.08,29.98,5,0,7,0.00
2013-5-9,86.3,71.7,56.9,68.0,62.4,56.0,97,75,44,30.12,30.03,5,0,9,0.00
2013-5-10,81.6,69.6,58.2,69.0,64.4,57.0,97,84,60,30.10,29.92,6,1,14,0.00
2013-5-11,76.1,68.3,60.2,69.0,65.6,59.0,97,91,77,30.01,29.91,4,0,8,0.01
2013-5-12,78.0,67.4,52.8,63.0,58.2,51.0,97,75,51,30.08,29.95,9,1,11,0.00
2013-5-13,75.4,60.0,44.3,51.0,45.7,38.0,97,66,29,30.24,30.09,9,2,17,0.00
2013-5-14,85.6,67.9,46.7,61.0,53.7,46.0,97,66,36,30.26,30.12,3,1,8,0.00
2013-5-15,87.1,70.1,53.1,64.0,57.9,52.0,97,69,41,30.20,30.02,4,0,8,0.00
2013-5-16,85.2,71.7,59.4,70.0,63.2,56.0,94,76,52,30.06,29.95,5,1,10,0.00
2013-5-17,86.9,74.2,64.4,71.0,67.7,63.0,97,82,51,30.06,29.96,6,1,11,0.00
2013-5-18,85.1,73.8,66.9,76.0,70.7,66.0,97,90,71,30.10,29.98,3,0,11,0.55
2013-5-19,88.0,75.3,65.6,75.0,70.6,65.0,97,86,61,30.06,29.95,3,0,9,0.01
2013-5-20,90.1,77.5,68.1,73.0,70.4,67.0,97,81,52,30.06,29.93,5,1,9,0.00
2013-5-21,92.0,77.3,66.6,74.0,69.2,66.0,97,79,53,30.01,29.85,7,1,10,0.00
2013-5-22,89.3,76.1,64.3,75.0,69.9,64.0,97,83,55,29.97,29.85,4,0,8,0.00
2013-5-23,90.4,76.6,64.2,73.0,66.8,63.0,97,75,43,30.00,29.91,6,1,9,0.00
2013-5-24,85.8,73.3,61.3,65.0,60.6,53.0,97,68,35,30.15,29.98,8,2,15,0.00
2013-5-25,87.3,70.1,51.1,63.0,53.6,48.0,92,60,30,30.23,30.12,9,1,9,0.00
2013-5-26,91.0,73.7,55.9,68.0,61.4,55.0,97,70,36,30.21,30.09,4,0,10,0.00
2013-5-27,89.9,76.0,62.9,73.0,63.1,59.0,97,69,36,30.17,30.03,6,1,11,0.00
2013-5-28,90.6,75.8,59.3,71.0,66.1,58.0,95,74,45,30.10,30.00,7,1,12,0.00
2013-5-29,90.3,76.6,64.7,73.0,69.2,64.0,97,80,47,30.09,30.00,10,2,15,0.00
2013-5-30,89.5,79.3,69.9,73.0,70.5,69.0,96,76,53,30.10,29.98,9,2,13,0.00
2013-5-31,88.3,78.7,69.7,74.0,71.0,69.0,96,78,57,30.08,29.98,9,2,11,0.00
2013-6-1,87.4,77.6,69.7,78.0,73.3,69.0,97,87,67,30.01,29.92,6,1,11,0.52
2013-6-2,92.3,76.0,68.9,76.0,71.5,68.0,97,87,54,29.97,29.83,8,1,16,2.97
2013-6-3,89.4,77.1,70.2,76.0,72.8,69.0,97,87,63,29.92,29.83,5,0,9,0.03
2013-6-4,93.5,79.3,69.2,77.0,73.2,68.0,97,83,54,29.94,29.86,5,0,10,0.00
2013-6-5,85.3,76.7,67.9,77.0,72.8,67.0,97,88,74,29.96,29.84,7,1,12,0.04
2013-6-6,82.7,74.8,68.6,75.0,71.4,68.0,97,89,74,29.88,29.68,7,1,9,0.15
2013-6-7,86.0,74.2,67.5,75.0,70.2,67.0,97,88,64,29.88,29.70,10,1,11,0.08
2013-6-8,91.2,76.6,63.7,77.0,70.3,63.0,97,82,58,30.02,29.88,6,0,8,0.00
2013-6-9,75.0,72.2,70.3,73.0,71.1,69.0,96,96,94,30.05,29.94,6,1,10,1.39
2013-6-10,82.3,74.8,71.3,77.0,72.7,70.0,97,93,82,30.07,29.96,6,1,9,0.35
2013-6-11,95.0,81.5,70.0,79.0,74.8,69.0,97,82,54,30.08,29.97,3,0,8,0.00
2013-6-12,96.3,83.2,72.5,80.0,75.9,71.0,97,80,52,30.05,29.96,4,0,7,0.00
2013-6-13,95.5,83.8,72.0,80.0,75.5,71.0,96,78,53,29.99,29.81,4,0,10,0.00
2013-6-14,89.1,78.6,68.5,78.0,73.1,67.0,96,84,55,29.93,29.79,7,1,12,1.24
2013-6-15,91.6,80.1,67.0,76.0,71.4,65.0,95,76,53,30.02,29.91,6,1,10,0.00
2013-6-16,92.9,82.5,73.5,78.0,75.3,72.0,97,81,55,30.06,29.95,7,1,10,0.00
2013-6-17,90.0,78.3,72.1,80.0,75.1,71.0,97,91,69,30.00,29.93,7,1,18,0.29
2013-6-18,90.7,79.4,72.1,79.0,75.3,71.0,97,88,67,29.98,29.86,7,1,13,0.12
2013-6-19,87.0,77.6,71.6,78.0,73.8,71.0,97,89,68,30.00,29.90,3,0,7,0.22
2013-6-20,89.0,78.7,68.2,76.0,72.4,67.0,97,82,60,30.07,29.98,6,1,10,0.00
2013-6-21,89.3,78.7,71.2,76.0,71.9,68.0,96,81,58,30.12,30.04,6,1,12,0.00
2013-6-22,89.7,78.3,67.6,76.0,71.4,67.0,97,80,58,30.11,30.00,5,1,12,0.00
2013-6-23,84.7,75.8,70.3,78.0,73.6,69.0,97,93,75,30.11,30.02,3,0,8,0.15
2013-6-24,92.9,77.4,70.1,78.0,73.3,69.0,97,89,59,30.16,30.06,7,0,12,1.48
2013-6-25,88.9,78.6,69.0,79.0,74.4,68.0,97,88,67,30.13,30.00,5,0,8,0.01
2013-6-26,93.6,81.7,69.9,80.0,75.0,69.0,97,82,56,30.07,29.94,4,0,8,0.00
2013-6-27,93.2,82.0,71.8,81.0,76.8,71.0,97,85,61,29.99,29.85,3,0,8,0.00
2013-6-28,95.4,80.3,70.7,82.0,76.3,70.0,97,88,62,29.89,29.73,7,1,25,2.64
2013-6-29,91.5,77.7,69.7,79.0,73.6,69.0,98,88,63,29.80,29.65,4,1,15,1.29
2013-6-30,87.2,76.9,70.0,78.0,73.8,69.0,97,90,69,29.75,29.67,4,0,6,0.06
2013-7-1,87.2,76.4,67.3,79.0,72.9,67.0,98,89,73,29.89,29.74,4,0,11,0.36
2013-7-2,89.2,77.8,68.8,79.0,73.0,68.0,97,86,59,30.00,29.86,4,0,7,0.01
2013-7-3,74.7,72.7,70.9,74.0,71.9,70.0,98,97,96,30.03,29.94,5,1,10,0.47
2013-7-4,74.1,72.7,71.6,73.0,71.9,71.0,98,97,94,30.05,29.95,6,2,15,2.53
2013-7-5,75.2,72.5,69.9,74.0,71.6,69.0,98,97,94,30.09,30.02,6,1,12,0.31
2013-7-6,78.1,74.3,72.2,77.0,73.4,72.0,98,97,93,30.06,30.00,5,1,9,0.34
2013-7-7,86.3,75.9,71.8,78.0,74.0,71.0,98,94,75,30.11,30.04,6,1,15,0.03
2013-7-8,91.7,77.5,72.5,79.0,73.8,72.0,98,89,60,30.16,30.07,4,0,9,0.27
2013-7-9,92.5,79.8,69.3,80.0,75.0,69.0,98,86,62,30.17,30.05,4,0,6,0.00
2013-7-10,89.5,77.9,72.0,80.0,75.2,71.0,97,92,70,30.08,29.95,7,0,17,0.13
2013-7-11,84.5,77.4,73.3,79.0,74.8,72.0,97,92,78,29.97,29.86,5,0,11,0.06
2013-7-12,93.4,78.6,70.6,80.0,74.0,70.0,98,87,55,29.90,29.79,9,0,13,0.02
2013-7-13,89.1,76.4,67.7,79.0,72.4,67.0,98,88,66,29.97,29.85,9,1,22,0.05
2013-7-14,84.1,75.1,68.0,78.0,73.2,67.0,98,94,78,30.05,29.92,5,1,11,0.61
2013-7-15,88.7,77.4,69.7,76.0,73.0,69.0,98,87,62,30.15,30.04,8,1,13,0.20
2013-7-16,89.9,79.0,72.6,76.0,73.9,72.0,98,86,60,30.19,30.11,8,2,15,0.29
2013-7-17,91.8,80.5,70.3,78.0,74.1,69.0,98,83,57,30.21,30.07,7,1,10,0.27
2013-7-18,93.0,77.8,68.5,80.0,73.3,68.0,98,87,59,30.12,29.99,5,0,10,0.01
2013-7-19,88.3,75.9,70.2,78.0,73.6,70.0,98,93,69,30.08,29.96,3,0,6,0.15
2013-7-20,84.5,75.8,71.6,79.0,74.3,71.0,98,95,83,30.02,29.92,3,0,10,0.23
2013-7-21,86.2,77.1,72.8,81.0,75.0,72.0,98,93,78,30.04,29.96,6,1,11,1.37
2013-7-22,89.9,76.7,71.5,80.0,74.5,71.0,98,93,68,30.03,29.96,7,1,16,1.05
2013-7-23,91.5,77.8,69.1,81.0,74.5,69.0,98,90,69,30.00,29.88,14,1,21,0.59
2013-7-24,88.1,74.4,69.0,81.0,73.1,69.0,98,96,78,29.91,29.83,3,0,11,1.75
2013-7-25,90.7,79.5,70.6,80.0,74.8,70.0,98,86,63,29.97,29.84,4,0,8,0.01
2013-7-26,92.2,79.9,69.0,78.0,73.0,69.0,98,82,52,30.01,29.93,4,0,7,0.00
2013-7-27,90.3,76.3,70.2,80.0,73.3,70.0,98,91,67,29.95,29.90,6,0,14,0.05
2013-7-28,90.4,79.3,73.0,79.0,75.3,72.0,98,88,65,30.00,29.88,5,1,8,1.08
2013-7-29,92.8,79.3,72.0,81.0,75.5,71.0,98,89,60,30.10,29.96,3,0,7,0.01
2013-7-30,95.9,82.0,72.2,81.0,76.4,71.0,97,84,57,30.14,30.04,7,0,10,0.00
2013-7-31,89.7,78.2,73.3,81.0,75.6,72.0,97,92,72,30.08,29.98,7,0,16,1.01
2013-8-1,87.7,77.0,72.0,80.0,75.0,71.0,98,94,76,29.99,29.89,5,0,11,0.55
2013-8-2,94.3,81.2,70.6,81.0,76.1,70.0,98,86,57,30.00,29.90,4,0,6,0.00
2013-8-3,93.7,82.3,72.8,81.0,76.1,72.0,98,83,57,30.04,29.95,4,0,8,0.00
2013-8-4,94.7,81.6,74.0,81.0,76.9,73.0,98,87,60,30.03,29.92,5,0,12,0.19
2013-8-5,92.0,80.8,72.9,79.0,75.1,72.0,98,84,59,30.01,29.92,7,1,9,0.01
2013-8-6,93.4,79.9,71.2,80.0,74.8,71.0,98,86,61,29.99,29.89,25,1,25,0.53
2013-8-7,92.8,80.6,70.5,81.0,75.8,70.0,98,86,60,29.97,29.88,3,0,9,0.00
2013-8-8,92.6,79.3,72.9,80.0,75.4,72.0,97,89,63,29.98,29.91,6,0,9,0.36
2013-8-9,93.2,79.6,73.4,81.0,75.8,72.0,98,89,61,30.05,29.94,5,1,16,0.75
2013-8-10,92.0,77.8,71.4,80.0,74.6,71.0,98,90,63,30.09,30.01,6,1,24,0.24
2013-8-11,94.9,80.1,70.8,80.0,74.8,70.0,98,86,54,30.13,30.04,3,0,6,0.00
2013-8-12,94.5,78.6,71.4,80.0,74.4,71.0,98,88,56,30.10,30.00,7,0,14,1.86
2013-8-13,92.0,78.4,72.2,81.0,75.6,72.0,99,91,67,30.01,29.90,7,0,8,0.00
2013-8-14,90.0,77.5,73.1,80.0,74.8,72.0,98,92,66,29.93,29.85,5,0,9,3.78
2013-8-15,87.2,76.4,72.7,79.0,74.5,72.0,98,94,72,29.95,29.88,7,0,10,1.00
2013-8-16,80.7,74.6,70.3,76.0,72.4,70.0,98,93,82,30.00,29.91,5,1,8,0.00
2013-8-17,72.6,70.9,69.6,72.0,70.2,69.0,98,97,96,30.03,29.95,4,1,8,1.45
2013-8-18,82.4,73.0,69.4,79.0,72.0,69.0,98,97,87,30.07,30.01,9,1,14,0.49
2013-8-19,89.9,76.7,69.5,80.0,74.0,69.0,98,92,71,30.05,29.95,4,1,8,0.37
2013-8-20,85.7,74.6,70.6,79.0,72.7,70.0,98,94,77,30.10,29.98,4,1,8,0.02
2013-8-21,90.7,76.8,69.9,80.0,73.1,69.0,98,89,63,30.14,30.04,6,0,14,0.02
2013-8-22,88.6,76.8,70.2,78.0,73.4,69.0,97,90,67,30.10,29.98,5,1,20,0.19
2013-8-23,88.1,77.1,69.3,78.0,72.7,69.0,98,87,67,30.02,29.95,5,1,8,0.01
2013-8-24,89.7,77.9,69.3,79.0,72.7,68.0,98,85,63,30.16,29.99,11,1,17,1.08
2013-8-25,85.5,76.1,69.0,77.0,71.9,67.0,97,87,71,30.20,30.12,7,1,11,0.13
2013-8-26,85.4,74.5,65.0,70.0,65.7,63.0,95,76,50,30.20,30.09,5,1,11,0.00
2013-8-27,88.8,74.8,63.9,73.0,67.6,63.0,97,80,53,30.11,30.00,3,0,8,0.00
2013-8-28,89.4,76.6,66.2,75.0,69.6,65.0,97,81,53,30.06,29.97,3,0,7,0.00
2013-8-29,92.0,77.8,66.1,77.0,71.7,65.0,98,83,56,30.04,29.93,4,0,8,0.00
2013-8-30,92.9,80.7,71.2,80.0,75.1,70.0,97,84,59,29.98,29.86,4,0,11,0.00
2013-8-31,93.1,80.7,73.5,79.0,76.1,73.0,97,86,62,29.92,29.83,4,0,7,0.01
2013-9-1,96.7,80.2,71.3,80.0,74.3,70.0,98,84,54,29.91,29.82,4,0,9,0.00
2013-9-2,90.1,77.5,69.8,80.0,73.6,69.0,98,88,68,29.96,29.85,9,1,14,0.00
2013-9-3,90.9,75.0,69.8,80.0,72.6,69.0,98,93,70,29.97,29.87,3,0,8,0.69
2013-9-4,93.6,78.9,67.9,80.0,73.6,67.0,98,85,56,30.06,29.95,4,0,8,0.01
2013-9-5,92.1,80.2,71.1,78.0,73.9,70.0,98,83,56,30.09,30.00,4,0,7,0.00
2013-9-6,91.7,78.2,69.2,74.0,70.7,68.0,97,80,48,30.07,29.97,6,0,6,0.00
2013-9-7,92.2,78.2,68.1,78.0,72.3,67.0,98,84,56,30.04,29.93,6,0,8,0.00
2013-9-8,92.6,78.3,67.4,77.0,71.7,67.0,98,82,51,29.98,29.90,3,0,6,0.00
2013-9-9,94.4,79.8,67.6,78.0,72.1,67.0,98,80,49,30.03,29.94,4,0,8,0.00
2013-9-10,89.5,79.1,70.7,74.0,71.8,70.0,97,80,56,30.13,30.01,5,1,9,0.00
2013-9-11,90.0,79.0,70.9,76.0,72.1,69.0,95,81,57,30.14,30.02,7,1,11,0.00
2013-9-12,93.6,78.5,68.8,76.0,71.0,67.0,97,80,45,30.04,29.88,8,0,8,0.00
2013-9-13,92.4,78.2,65.7,76.0,70.5,65.0,98,80,50,29.91,29.77,5,0,7,0.00
2013-9-14,88.1,75.3,66.6,71.0,66.0,63.0,95,75,47,29.98,29.84,5,1,8,0.00
2013-9-15,92.3,77.9,64.6,78.0,70.4,63.0,94,79,54,30.05,29.97,4,0,7,0.00
2013-9-16,91.7,79.1,71.2,78.0,74.0,70.0,97,85,60,30.07,29.97,12,0,13,0.00
2013-9-17,91.2,78.0,69.2,78.0,73.2,68.0,97,86,59,30.06,29.96,10,1,18,0.27
2013-9-18,85.4,76.5,70.1,74.0,71.5,68.0,95,85,67,30.11,30.01,9,1,12,0.00
2013-9-19,88.0,76.6,66.6,73.0,69.3,65.0,94,79,57,30.09,29.99,8,1,11,0.00
2013-9-20,89.9,77.0,66.2,76.0,70.9,65.0,94,82,57,30.02,29.85,7,1,12,0.00
2013-9-21,79.0,74.3,72.5,77.0,72.9,71.0,97,95,91,29.86,29.72,3,0,10,1.04
2013-9-22,81.1,72.9,67.9,74.0,70.1,67.0,97,91,74,29.79,29.72,6,1,7,0.00
2013-9-23,85.9,74.6,69.1,79.0,72.6,68.0,97,94,77,29.90,29.78,7,1,8,0.00
2013-9-24,78.0,74.7,73.0,75.0,73.2,72.0,97,95,90,29.90,29.75,8,1,13,1.33
2013-9-25,87.4,76.1,68.9,77.0,72.6,68.0,98,89,65,29.79,29.71,6,0,7,0.04
2013-9-26,79.9,71.0,65.9,72.0,68.6,65.0,98,92,73,29.95,29.78,6,1,9,0.02
2013-9-27,81.6,69.6,61.1,68.0,63.3,61.0,98,82,53,30.05,29.94,6,1,11,0.01
2013-9-28,81.3,69.5,59.2,67.0,62.3,58.0,95,79,56,30.10,30.01,6,1,10,0.00
2013-9-29,80.9,68.3,57.7,68.0,62.6,57.0,96,83,57,30.06,29.94,5,0,9,0.00
2013-9-30,82.4,71.4,63.5,72.0,66.6,62.0,94,85,65,30.00,29.92,5,0,7,0.00
2013-10-1,85.4,74.0,66.7,72.0,68.0,64.0,95,82,58,30.08,29.98,4,1,10,0.00
2013-10-2,82.6,73.6,67.9,72.0,68.4,65.0,92,84,63,30.08,30.00,4,0,7,0.00
2013-10-3,87.7,76.6,65.7,73.0,68.8,64.0,96,78,55,30.07,29.98,6,1,8,0.00
2013-10-4,90.1,75.2,66.9,75.0,70.0,66.0,98,85,55,30.08,29.98,6,1,9,0.00
2013-10-5,88.8,77.2,68.1,75.0,71.3,67.0,98,84,58,30.04,29.93,6,1,9,0.00
2013-10-6,78.7,72.5,69.4,74.0,70.9,69.0,98,95,84,29.95,29.80,7,1,11,0.48
2013-10-7,75.9,67.0,57.4,71.0,62.2,56.0,98,85,62,29.94,29.80,9,2,16,0.04
2013-10-8,78.8,67.0,54.3,72.0,62.7,53.0,96,86,74,30.01,29.91,5,1,11,0.00
2013-10-9,69.2,64.5,59.1,65.0,62.1,59.0,98,92,85,30.12,30.00,5,1,9,0.00
2013-10-10,82.5,67.2,55.6,69.0,61.9,55.0,99,85,56,30.11,29.99,4,0,7,0.00
2013-10-11,84.4,68.9,56.4,69.0,62.4,56.0,99,82,51,30.05,29.95,6,0,8,0.01
2013-10-12,84.2,68.8,56.8,70.0,62.9,56.0,99,84,52,30.07,29.98,5,1,10,0.00
2013-10-13,83.4,68.8,58.8,68.0,62.3,58.0,98,83,53,30.14,30.04,9,1,11,0.00
2013-10-14,81.8,69.9,61.5,68.0,64.1,60.0,96,83,60,30.12,30.01,7,1,10,0.00
2013-10-15,75.1,64.9,59.5,67.0,62.4,59.0,98,92,76,30.07,29.97,3,0,8,0.00
2013-10-16,83.9,68.6,56.9,70.0,63.2,56.0,99,84,55,30.03,29.91,3,0,6,0.01
2013-10-17,82.9,70.6,62.0,73.0,67.9,61.0,98,91,70,29.95,29.86,6,1,12,0.10
2013-10-18,75.2,67.5,63.9,68.0,64.9,63.0,97,91,74,29.99,29.90,4,0,7,0.00
2013-10-19,69.1,64.3,59.5,64.0,61.7,58.0,97,91,77,30.00,29.90,7,1,8,0.00
2013-10-20,75.5,62.1,55.1,62.0,57.5,54.0,98,86,54,30.03,29.95,5,1,9,0.00
2013-10-21,74.4,63.2,55.1,65.0,59.2,54.0,95,87,67,30.05,29.96,2,0,7,0.00
2013-10-22,77.3,65.8,56.7,67.0,62.9,56.0,98,91,69,29.96,29.84,2,0,6,0.02
2013-10-23,70.6,57.7,45.3,56.0,49.1,42.0,98,77,37,30.10,29.90,8,1,16,0.01
2013-10-24,75.7,55.5,41.1,56.0,47.4,40.0,98,79,39,30.20,30.09,4,0,6,0.00
2013-10-25,63.4,51.6,41.3,49.0,42.6,35.0,98,75,37,30.37,30.17,9,2,13,0.00
2013-10-26,69.8,50.9,37.8,47.0,39.5,35.0,95,70,32,30.30,30.15,4,0,7,0.00
2013-10-27,75.7,57.6,41.8,59.0,50.3,41.0,98,80,47,30.18,30.08,4,0,5,0.00
2013-10-28,79.4,63.1,50.9,62.0,55.4,50.0,98,79,45,30.21,30.10,4,0,6,0.00
2013-10-29,80.2,63.0,50.0,64.0,56.7,49.0,98,82,49,30.27,30.17,5,1,8,0.00
2013-10-30,81.0,64.3,52.6,66.0,58.3,52.0,98,83,49,30.25,30.10,5,0,9,0.00
2013-10-31,77.1,68.4,57.4,72.0,66.4,56.0,98,93,83,30.09,29.87,12,2,14,0.10
2013-11-1,72.8,67.4,57.0,72.0,66.5,57.0,98,96,94,29.88,29.75,5,1,9,0.44
2013-11-2,75.1,58.3,46.8,61.0,51.7,46.0,99,82,47,30.08,29.85,6,1,12,0.02
2013-11-3,67.2,52.3,40.6,49.0,44.1,40.0,97,77,40,30.23,30.07,11,1,14,0.00
2013-11-4,72.5,58.8,45.6,54.0,49.1,43.0,91,72,52,30.29,30.21,7,2,12,0.00
2013-11-5,72.8,61.2,50.3,58.0,50.5,43.0,76,68,55,30.29,30.17,11,2,14,0.00
2013-11-6,78.7,66.5,56.9,68.0,61.4,51.0,95,84,68,30.18,30.06,8,1,11,0.00
2013-11-7,65.0,57.5,46.9,64.0,54.8,41.0,97,91,77,30.21,30.02,9,2,15,0.08
2013-11-8,63.4,49.7,41.6,44.0,39.1,36.0,95,70,40,30.29,30.18,10,3,16,0.00
2013-11-9,69.3,55.8,43.2,58.0,49.2,40.0,95,80,60,30.27,30.17,5,0,7,0.00
2013-11-10,73.5,59.5,49.3,59.0,53.8,47.0,95,83,52,30.26,30.16,6,1,8,0.00
2013-11-11,75.1,57.7,46.8,55.0,48.2,46.0,96,75,37,30.23,30.11,6,0,7,0.00
2013-11-12,71.8,53.5,38.6,52.0,43.7,25.0,98,72,46,30.40,30.12,14,4,21,0.00
2013-11-13,53.1,39.6,29.8,30.0,24.6,21.0,90,58,30,30.50,30.39,11,3,15,0.00
2013-11-14,64.5,46.7,29.2,48.0,37.2,25.0,93,72,50,30.43,30.21,7,1,8,0.00
2013-11-15,65.7,58.6,53.6,61.0,55.3,47.0,94,89,78,30.21,30.04,4,1,9,0.01
2013-11-16,75.1,65.5,56.8,67.0,62.1,56.0,97,89,74,30.14,30.01,6,1,9,0.00
2013-11-17,78.4,71.1,66.2,74.0,69.0,65.0,97,93,84,30.02,29.90,7,2,10,0.02
2013-11-18,81.0,70.0,54.2,72.0,61.6,42.0,97,76,55,30.03,29.91,7,1,11,0.38
2013-11-19,64.3,51.7,42.7,47.0,41.6,38.0,93,71,44,30.10,30.00,8,1,14,0.00
2013-11-20,65.8,55.1,42.5,55.0,47.5,40.0,93,76,65,30.19,30.05,6,2,12,0.00
2013-11-21,69.5,60.5,53.4,62.0,55.5,49.0,93,84,77,30.26,30.17,5,1,9,0.00
2013-11-22,72.2,63.5,57.0,66.0,61.1,56.0,96,92,81,30.25,30.11,4,0,7,0.00
2013-11-23,66.4,60.5,48.9,63.0,56.8,40.0,96,88,70,30.23,30.12,12,2,16,0.00
2013-11-24,53.9,44.9,36.2,40.0,31.0,25.0,86,61,36,30.38,30.23,17,3,18,0.00
2013-11-25,56.9,48.6,38.3,53.0,38.2,26.0,89,68,59,30.33,29.97,10,3,14,0.01
2013-11-26,67.2,54.6,45.9,66.0,53.5,45.0,97,96,91,29.96,29.63,11,3,16,1.26
2013-11-27,45.7,38.6,27.7,45.0,33.8,25.0,96,83,54,30.33,29.80,15,3,21,0.13
2013-11-28,49.8,35.5,26.0,32.0,26.4,23.0,93,73,36,30.46,30.33,8,1,10,0.00
2013-11-29,59.5,40.9,28.3,38.0,31.2,27.0,96,74,33,30.52,30.41,10,1,14,0.00
2013-11-30,65.5,47.4,31.3,49.0,39.3,30.0,96,76,40,30.46,30.26,5,1,6,0.00
2013-12-1,64.4,51.6,40.8,53.0,46.9,39.0,96,84,63,30.26,30.00,4,0,7,0.00
2013-12-2,72.0,57.5,43.9,55.0,51.0,43.0,97,81,48,30.01,29.79,7,0,11,0.00
2013-12-3,77.0,63.8,53.2,67.0,60.0,52.0,98,88,61,29.86,29.76,9,1,14,0.08
2013-12-4,75.4,67.0,59.9,72.0,66.0,59.0,98,96,87,29.98,29.87,4,0,15,0.58
2013-12-5,81.5,73.2,68.8,74.0,70.6,68.0,98,92,75,30.06,29.96,19,2,19,0.10
2013-12-6,81.4,73.4,61.6,74.0,70.5,60.0,96,90,73,30.09,29.98,12,2,18,0.01
2013-12-7,61.4,48.6,45.5,60.0,47.1,44.0,96,94,93,30.25,30.08,10,2,11,0.01
2013-12-8,74.0,61.5,47.9,69.0,59.8,47.0,98,94,84,30.21,30.05,5,1,11,0.00
2013-12-9,75.0,67.3,62.4,72.0,65.9,62.0,98,95,90,30.08,30.01,5,1,10,0.63
2013-12-10,67.0,49.3,36.4,67.0,46.8,35.0,98,91,76,30.33,29.99,9,3,17,0.21
2013-12-11,60.8,44.8,33.1,50.0,39.4,31.0,96,83,60,30.38,30.28,7,1,9,0.00
2013-12-12,56.2,43.4,28.5,44.0,32.2,24.0,92,68,29,30.47,30.35,8,2,14,0.00
2013-12-13,55.5,42.6,28.0,46.0,34.4,26.0,94,75,48,30.36,30.07,5,1,6,0.00
2013-12-14,71.4,61.3,50.1,69.0,59.2,46.0,96,92,86,30.07,29.80,7,2,11,0.40
2013-12-15,56.5,42.5,31.3,55.0,39.0,30.0,96,87,74,30.25,29.89,13,3,17,0.00
2013-12-16,59.3,40.4,28.2,41.0,34.1,27.0,97,82,43,30.31,30.23,5,1,7,0.01
2013-12-17,64.7,44.7,29.0,45.0,37.1,28.0,98,79,38,30.32,30.18,4,0,10,0.00
2013-12-18,61.4,44.0,31.8,42.0,35.7,31.0,98,77,35,30.37,30.24,10,1,10,0.00
2013-12-19,66.2,48.9,32.1,50.0,39.9,31.0,96,74,44,30.29,30.14,6,1,10,0.00
2013-12-20,73.8,59.5,45.9,66.0,55.7,43.0,96,87,75,30.18,30.04,7,1,9,0.00
2013-12-21,76.8,70.5,61.9,72.0,68.1,61.0,97,92,84,30.03,29.88,11,4,19,0.01
2013-12-22,76.1,67.1,54.9,73.0,65.2,54.0,97,93,89,30.09,29.88,15,3,20,1.75
2013-12-23,54.9,49.4,40.1,54.0,47.7,36.0,97,93,85,30.33,30.04,10,2,14,0.53
2013-12-24,49.7,38.4,27.2,35.0,30.8,26.0,94,76,45,30.46,30.33,10,3,17,0.00
2013-12-25,52.5,39.6,26.5,41.0,33.3,25.0,95,79,54,30.39,30.25,6,1,7,0.00
2013-12-26,54.4,44.6,35.9,43.0,39.5,35.0,95,83,62,30.33,30.24,13,1,13,0.00
2013-12-27,57.6,49.1,38.5,41.0,39.3,36.0,94,71,54,30.38,30.28,7,1,11,0.00
2013-12-28,51.4,46.9,43.4,51.0,44.5,39.0,97,91,69,30.28,29.85,9,2,13,1.62
2013-12-29,51.5,46.1,37.7,51.0,45.0,37.0,98,96,92,30.09,29.86,5,1,9,0.01
2013-12-30,56.7,45.9,34.8,52.0,44.3,34.0,99,94,77,30.25,30.09,2,0,4,0.01
2013-12-31,48.1,44.7,42.7,47.0,42.4,41.0,97,91,83,30.39,30.25,8,2,11,0.01
2014-1-1,54.3,48.2,42.6,51.0,46.6,41.0,96,94,87,30.31,30.06,4,0,6,0.13
2014-1-2,57.3,48.4,32.7,55.0,45.6,28.0,97,90,71,30.23,29.87,11,2,27,0.20